Temperature
31 33 33 33 33 33 33 33 32 32 32 32 32 31 31 29 29 28 27 26 25 24 23 22 21 21 20 20 20 19 19 19 19 18 18 18 18 17 17 17 17 17 17 17
32 32 32 32 32 32 32 32 32 32 31 31 32 32 31 30 29 28 28 27 25 24 23 22 21 21 20 20 20 20 19 19 19 19 18 18 18 17 17 17 17 17 17 17
32 32 31 31 32 32 32 32 32 32 31 32 32 31 31 30 29 28 27 27 26 25 24 22 22 21 21 20 20 20 20 19 19 19 18 18 18 18 17 17 17 17 17 17
31 31 31 31 32 32 32 32 32 32 32 32 32 32 31 31 30 29 28 27 27 25 24 23 22 21 21 21 20 20 20 19 19 19 18 18 18 18 18 17 17 17 17 17
31 31 31 31 32 32 32 32 32 32 32 32 32 32 32 31 30 30 29 27 27 26 25 23 22 21 21 21 20 20 20 20 19 19 18 18 18 18 17 17 17 17 17 17
31 31 31 32 32 32 31 31 31 32 32 31 31 31 31 32 31 31 30 27 26 26 24 23 22 21 21 21 20 20 20 20 19 19 18 18 18 18 18 18 17 17 17 17
30 30 31 31 31 31 31 31 31 31 31 31 31 31 31 32 31 31 30 28 27 25 24 23 22 22 21 21 20 20 20 20 19 19 19 18 18 18 18 17 17 17 17 17
29 30 31 31 32 31 31 32 31 30 30 31 30 31 32 31 30 29 29 28 27 26 25 23 22 22 21 21 21 20 20 20 19 19 19 19 18 18 17 17 17 17 17 17
30 30 31 31 31 32 31 32 33 32 31 31 31 31 32 31 30 30 29 28 27 26 25 24 23 22 22 21 21 21 20 20 20 19 19 19 18 18 18 17 17 17 17 17
31 30 30 30 31 30 32 32 32 31 30 30 30 31 32 31 31 30 30 29 27 26 25 24 23 22 22 21 21 21 20 20 20 19 19 18 18 18 18 17 17 17 17 17
31 30 30 30 30 31 30 31 31 31 31 30 30 31 32 32 31 30 30 28 27 26 25 24 23 22 22 21 21 21 20 20 20 19 19 19 18 18 18 17 17 17 17 17
30 30 30 30 31 31 32 32 31 30 29 30 31 31 32 31 31 30 29 28 26 25 25 24 23 22 22 21 21 21 20 20 20 19 19 19 18 18 18 17 17 17 17 17
29 29 28 29 29 30 30 31 32 32 31 30 30 31 31 31 30 29 28 27 25 25 24 23 23 22 21 21 21 20 20 20 19 19 19 19 18 18 18 17 17 17 17 17
28 29 29 29 30 30 30 30 31 31 30 30 31 31 31 31 30 29 27 26 25 24 23 23 22 22 21 21 20 20 20 20 19 19 19 18 18 18 17 17 17 17 17 16
28 28 29 30 31 31 30 30 30 31 31 31 31 31 31 31 30 28 26 25 24 23 23 22 22 21 21 21 20 20 20 19 19 19 18 18 18 18 17 17 17 17 16 16
27 28 28 28 29 30 30 30 30 30 31 31 31 31 31 29 28 27 25 25 24 23 22 22 21 21 21 21 21 20 20 20 19 19 18 18 18 17 17 17 16 16 16 16
27 27 27 28 29 29 29 30 30 30 30 31 31 31 30 29 27 26 25 24 24 23 22 21 21 21 21 21 20 20 20 19 19 19 18 18 18 17 17 16 16 16 16 15
26 26 27 28 27 27 29 30 30 30 30 30 30 30 29 28 26 24 24 23 23 22 22 21 20 20 20 20 20 20 19 19 19 18 18 18 17 17 17 16 16 16 15 15
25 26 27 28 27 28 28 28 29 29 29 29 29 28 27 26 26 25 23 22 22 21 21 20 20 20 20 20 20 19 19 19 18 18 18 17 17 17 17 16 16 15 15 14
24 25 27 27 27 27 28 28 27 28 28 28 27 27 26 26 29 26 22 21 21 21 20 20 20 20 20 20 19 19 19 18 18 18 17 17 17 16 16 16 15 15 14 14
24 24 26 26 27 28 27 26 26 27 27 26 26 25 25 25 25 22 21 20 20 20 20 19 19 19 19 19 19 19 18 18 18 17 17 17 16 16 16 15 15 14 14 13
25 26 25 26 26 27 25 26 27 25 24 24 24 24 23 22 21 20 20 20 19 19 19 19 19 19 19 18 18 18 18 17 17 17 16 16 16 15 15 15 14 14 13 13
24 25 26 26 25 23 23 23 22 22 22 22 22 22 21 21 20 19 19 19 19 19 19 19 18 18 18 18 17 17 17 17 17 17 16 16 15 15 14 14 14 13 13 12
22 21 23 23 23 22 21 21 21 21 21 21 21 20 20 20 19 19 18 18 18 18 18 18 18 18 18 17 17 17 17 17 16 16 16 15 15 14 14 13 13 12 12 12
22 22 23 22 22 22 21 20 20 20 20 20 20 20 19 19 18 18 18 17 17 17 18 18 17 17 17 17 17 16 16 16 16 15 15 14 14 14 13 13 13 12 12 12
22 22 23 23 21 22 20 19 19 19 19 19 19 19 19 18 18 17 17 17 17 17 17 17 17 17 16 16 16 16 16 15 15 15 14 14 14 13 13 13 12 12 12 11
Wind_Speed
5 9 10 7 4 1 2 3 3 3 3 6 6 5 6 9 10 10 10 10 10 10 9 8 8 8 8 8 8 8 7 7 6 5 5 4 4 4 4 4 4 4 5 4
9 11 6 5 4 4 5 5 4 4 3 4 4 4 5 8 10 10 10 10 10 9 9 9 8 8 8 8 8 8 8 7 7 5 4 3 3 3 3 3 3 5 5 5
13 7 6 7 8 8 6 5 3 3 4 4 4 6 6 7 9 9 9 9 9 10 10 10 9 9 8 8 8 7 7 6 6 5 4 3 3 3 3 3 3 4 4 4
10 6 8 9 9 9 7 2 3 4 5 2 4 2 5 6 9 10 10 10 10 10 10 10 10 9 8 8 7 7 7 6 6 6 5 4 4 3 3 2 2 2 3 4
10 9 10 11 8 8 3 3 4 4 5 4 3 5 3 6 6 8 9 9 9 10 10 10 10 9 8 8 7 7 6 6 5 5 4 4 4 3 2 2 2 3 3 3
7 6 8 8 5 5 7 6 4 6 7 6 2 5 1 2 3 4 7 9 10 10 10 10 9 9 8 8 7 7 7 6 5 5 4 4 3 3 2 2 2 2 2 2
10 10 7 7 8 8 10 9 7 7 7 4 2 5 0 2 1 2 5 8 10 11 11 11 11 10 9 9 8 7 7 6 5 5 4 4 3 3 3 3 2 2 2 2
15 15 13 11 12 10 13 13 9 6 5 4 5 4 1 3 1 3 5 8 10 11 11 11 11 10 10 9 9 8 7 6 5 4 4 3 3 2 2 2 2 1 1 2
13 13 10 8 7 9 12 12 8 7 6 6 4 3 3 3 4 6 7 9 10 11 11 11 11 10 10 9 9 8 7 6 5 5 4 3 2 1 1 1 1 1 1 1
8 10 11 9 8 3 7 9 7 9 7 7 6 6 4 5 5 7 8 9 10 10 11 11 10 10 10 9 9 8 7 6 6 5 4 3 3 2 1 1 0 1 1 1
9 10 11 12 13 14 9 10 8 8 8 8 6 3 2 3 4 6 8 9 10 10 10 10 10 10 10 9 9 8 8 7 6 5 4 3 2 2 2 1 0 0 0 1
11 9 11 13 7 5 13 13 12 10 7 7 8 2 6 3 3 5 7 8 9 9 10 10 11 11 10 10 9 8 8 7 6 6 5 4 3 3 2 2 1 1 1 1
10 8 11 11 10 8 11 12 13 12 9 9 10 4 6 3 3 5 7 8 9 9 10 10 11 10 10 9 8 8 7 7 6 6 6 5 4 3 2 2 2 2 2 2
9 10 13 14 12 14 14 13 13 13 11 11 11 7 4 3 3 5 7 9 10 10 10 10 10 9 9 8 8 7 7 7 7 7 6 5 4 3 3 3 3 3 3 3
8 11 11 9 7 10 13 14 14 15 14 12 9 9 6 3 3 5 7 9 10 10 10 10 10 9 9 9 8 8 7 7 7 7 7 6 5 5 4 4 3 3 4 4
7 8 10 10 9 11 11 12 13 13 12 12 10 8 3 2 4 5 7 9 10 10 10 10 10 10 10 9 9 8 8 8 8 7 7 6 6 6 5 5 5 5 5 5
9 8 11 12 11 11 14 13 13 12 11 11 11 6 3 3 3 4 6 8 9 10 10 10 9 9 9 9 9 9 8 8 8 7 7 7 7 6 6 6 6 6 5 5
9 10 9 10 11 15 9 6 9 10 9 8 6 3 2 2 3 3 4 6 7 8 9 9 8 8 9 9 9 9 9 9 9 8 7 7 7 7 7 6 6 6 5 6
8 10 10 11 14 12 7 6 9 10 9 6 6 4 2 4 4 4 3 4 6 7 8 8 8 9 9 10 10 10 10 10 9 8 7 6 6 7 8 7 6 6 6 6
7 9 10 11 14 13 8 7 5 7 9 5 5 4 4 5 6 3 4 3 5 6 7 7 8 9 9 9 10 10 10 9 8 7 7 6 6 7 7 7 7 6 6 6
10 9 13 13 12 8 4 5 7 10 5 3 3 4 4 3 1 4 4 5 6 7 8 8 9 9 8 9 10 10 9 8 7 7 8 7 7 7 7 7 7 7 7 7
10 10 11 12 13 8 4 6 6 1 3 2 2 2 3 3 5 5 6 6 7 7 8 9 9 8 7 8 9 9 8 8 8 8 8 8 7 7 7 8 7 7 7 7
5 3 4 5 3 4 3 2 2 2 2 2 2 3 4 5 5 6 6 6 6 7 8 8 9 8 7 6 7 8 8 8 9 9 8 8 8 7 7 8 8 7 6 5
3 1 2 2 2 2 2 2 2 1 2 2 2 3 5 5 6 6 6 6 6 7 7 7 8 8 6 6 6 6 7 8 9 9 8 8 8 7 7 5 5 5 5 4
2 4 4 3 3 3 3 1 1 2 2 3 4 4 5 6 6 5 5 5 5 6 6 6 6 7 6 6 6 6 7 8 9 9 8 8 7 7 7 5 3 3 3 2
3 3 4 3 2 2 2 1 1 3 3 4 4 5 5 5 5 5 5 5 5 5 5 6 6 6 6 6 6 6 6 7 8 8 8 7 7 7 7 7 6 9 7 8
Wind_Direction
202 213 206 192 211 197 193 207 171 130 156 214 222 214 179 179 192 191 190 191 192 192 187 185 187 190 192 194 197 204 209 201 203 204 209 208 213 218 223 235 239 249 255 252
203 209 191 169 181 202 206 210 178 142 154 226 230 226 194 193 200 201 199 196 196 188 183 184 187 190 193 194 198 202 205 203 203 201 208 217 231 236 233 242 242 247 249 251
213 179 162 185 189 203 212 224 194 154 165 201 248 206 189 191 199 202 206 204 200 195 189 186 188 191 191 193 195 195 199 201 204 201 206 211 213 233 231 238 244 249 248 247
214 175 187 200 203 216 205 205 208 189 217 197 262 254 158 183 195 204 204 202 200 191 188 187 185 184 187 189 187 189 191 195 194 195 206 213 220 230 238 246 252 257 246 249
194 189 197 206 205 216 188 154 191 215 241 254 236 279 136 166 201 202 199 196 193 185 183 184 182 179 180 180 177 179 180 183 186 193 201 215 226 232 235 235 244 257 248 247
183 184 209 206 186 183 149 156 174 221 241 243 254 274 213 150 196 180 179 186 186 180 177 174 172 169 171 170 171 172 172 176 180 187 196 210 220 234 248 253 263 257 248 242
195 194 189 190 173 172 195 202 211 219 226 233 160 257 344 77 87 173 168 172 178 177 174 170 169 169 169 169 170 168 167 173 178 183 193 204 215 221 232 250 261 279 277 267
199 198 193 197 209 197 208 219 231 241 238 208 185 238 128 93 104 152 159 158 164 167 169 168 168 169 169 170 171 167 166 171 174 176 185 194 204 218 226 243 280 286 297 304
204 199 178 195 213 221 201 221 242 245 260 259 217 209 185 158 150 151 152 154 158 163 165 167 169 170 170 170 169 168 166 166 166 169 170 166 173 198 191 184 239 271 297 297
210 198 180 173 178 203 235 210 214 238 240 244 226 225 202 171 160 160 160 161 157 159 161 164 168 169 168 167 164 166 166 165 166 166 169 158 164 175 182 194 336 353 335 334
213 203 181 187 205 195 187 202 216 230 246 251 240 210 119 153 163 171 168 164 161 160 160 161 164 164 163 161 160 163 165 165 164 161 159 156 156 160 161 159 154 75 9 4
207 214 197 193 191 239 214 210 205 217 222 243 261 210 106 127 155 167 163 159 159 158 157 157 158 160 162 162 163 165 165 165 163 158 155 153 148 143 139 120 104 94 75 40
188 205 195 190 192 196 210 214 220 229 225 230 240 213 125 144 152 152 154 155 157 159 156 156 158 162 164 165 165 162 165 164 159 154 153 148 141 135 130 117 108 94 81 65
201 214 222 215 203 193 199 203 215 222 226 228 237 241 186 192 169 152 151 157 158 158 157 159 160 162 160 160 159 160 163 160 158 155 152 145 137 128 123 114 110 98 89 83
207 213 222 236 214 203 207 207 209 224 236 241 233 236 237 222 179 157 157 160 160 160 160 161 163 159 159 157 157 158 157 156 154 154 151 144 136 125 120 115 109 106 95 88
207 215 206 212 210 211 215 213 213 222 232 238 241 237 222 148 154 157 163 168 170 169 167 164 163 161 161 159 158 155 154 153 155 153 148 141 135 130 126 112 99 94 88 83
194 203 207 210 204 210 219 215 214 217 224 229 230 228 173 178 174 175 176 178 178 174 170 168 167 164 162 160 157 154 151 148 148 148 147 143 141 135 126 119 114 108 102 95
201 206 213 214 202 220 222 208 217 220 222 230 243 242 221 202 174 170 178 180 179 174 170 166 163 158 157 154 151 148 145 144 145 148 148 145 144 134 126 123 118 114 111 104
205 204 216 218 216 217 194 193 205 212 220 222 229 222 188 151 160 141 121 162 175 170 165 161 157 151 148 148 147 147 146 146 147 149 148 149 146 137 132 129 127 122 118 111
185 210 218 218 225 222 200 178 200 216 216 201 210 207 188 187 219 166 120 133 143 146 148 148 143 138 140 144 147 149 148 149 152 150 144 141 140 137 136 133 130 126 125 120
184 199 215 219 225 223 144 153 180 211 200 155 189 193 192 197 342 106 121 121 125 132 139 139 136 134 138 143 148 150 150 152 149 142 137 137 138 137 135 132 131 131 128 120
201 200 209 219 224 210 129 176 200 119 64 114 142 154 154 123 111 114 111 115 123 129 133 134 130 127 132 143 150 150 150 148 143 142 141 140 141 139 136 135 136 138 138 134
218 239 216 226 220 83 115 117 70 66 83 91 107 123 132 131 126 116 107 111 119 127 130 130 128 126 127 137 146 147 146 146 145 144 142 142 140 137 140 144 146 148 151 149
178 193 196 187 148 121 132 116 90 74 80 89 114 128 135 131 127 118 112 114 121 126 132 132 131 128 129 133 135 141 145 149 149 147 146 146 145 140 136 140 147 149 150 152
174 189 196 197 164 156 151 113 81 91 101 109 114 121 128 127 125 119 115 115 118 121 124 128 132 133 130 130 131 137 143 150 150 147 148 149 147 142 139 130 107 129 109 99
207 216 223 209 174 205 144 88 97 126 123 119 121 119 116 120 123 118 112 114 119 123 125 128 132 131 132 135 135 137 144 152 153 151 154 153 150 148 147 139 119 59 70 73
Height
1520 1517 1516 1516 1516 1516 1518 1521 1524 1524 1524 1526 1526 1527 1530 1536 1539 1542 1545 1548 1551 1554 1557 1559 1560 1561 1562 1563 1564 1565 1566 1566 1567 1567 1568 1568 1569 1569 1570 1571 1571 1571 1572 1572
1519 1517 1515 1518 1519 1519 1520 1522 1523 1524 1525 1525 1525 1526 1527 1532 1536 1539 1542 1546 1549 1552 1554 1556 1558 1559 1560 1561 1562 1563 1564 1565 1565 1566 1567 1567 1568 1568 1569 1569 1569 1569 1570 1570
1515 1515 1519 1520 1521 1522 1521 1521 1522 1525 1525 1524 1525 1527 1527 1529 1534 1538 1541 1543 1546 1549 1551 1554 1555 1557 1558 1560 1561 1562 1563 1564 1564 1565 1565 1565 1566 1566 1567 1567 1567 1568 1568 1568
1514 1517 1519 1519 1519 1519 1524 1521 1522 1524 1526 1526 1527 1531 1525 1525 1529 1533 1537 1540 1543 1546 1549 1552 1554 1555 1557 1558 1559 1560 1561 1562 1563 1563 1564 1564 1564 1565 1565 1565 1565 1565 1565 1566
1516 1517 1519 1519 1518 1519 1520 1521 1522 1523 1525 1527 1526 1529 1524 1523 1526 1527 1532 1536 1540 1543 1546 1549 1552 1554 1556 1557 1558 1559 1560 1561 1562 1562 1562 1562 1563 1564 1564 1563 1563 1563 1564 1563
1513 1517 1516 1515 1517 1519 1522 1523 1524 1523 1522 1537 1531 1533 1529 1519 1522 1523 1528 1534 1538 1541 1545 1548 1551 1553 1554 1556 1557 1558 1559 1560 1560 1561 1561 1561 1561 1562 1562 1562 1562 1562 1562 1562
1518 1516 1516 1517 1519 1522 1520 1525 1537 1540 1539 1537 1528 1531 1527 1519 1520 1523 1526 1531 1536 1540 1543 1546 1549 1551 1553 1555 1556 1557 1558 1559 1559 1560 1560 1560 1560 1561 1561 1561 1561 1561 1561 1561
1519 1520 1513 1514 1513 1516 1518 1518 1535 1546 1543 1532 1531 1530 1520 1519 1522 1524 1527 1530 1534 1538 1542 1545 1548 1550 1552 1553 1555 1556 1557 1558 1558 1559 1559 1559 1559 1560 1560 1560 1560 1560 1560 1560
1510 1513 1509 1512 1513 1511 1517 1517 1511 1523 1530 1534 1527 1523 1518 1518 1521 1523 1526 1529 1533 1537 1540 1544 1546 1549 1551 1552 1554 1556 1556 1557 1558 1558 1558 1559 1559 1559 1560 1559 1559 1559 1559 1558
1503 1512 1509 1512 1514 1516 1511 1510 1519 1524 1542 1544 1535 1529 1522 1518 1519 1521 1525 1528 1532 1536 1539 1542 1545 1547 1550 1552 1553 1555 1556 1556 1557 1558 1558 1559 1559 1559 1559 1559 1559 1558 1558 1557
1502 1510 1512 1511 1513 1512 1517 1517 1516 1519 1522 1536 1540 1529 1510 1514 1517 1520 1523 1527 1531 1534 1538 1541 1543 1546 1548 1551 1553 1554 1555 1556 1556 1557 1558 1558 1558 1559 1558 1558 1558 1558 1557 1557
1503 1504 1509 1508 1507 1506 1506 1508 1515 1527 1532 1528 1528 1525 1510 1513 1516 1519 1523 1527 1530 1534 1537 1539 1542 1545 1547 1549 1552 1553 1554 1555 1556 1557 1557 1557 1558 1558 1558 1558 1558 1557 1557 1556
1503 1507 1518 1519 1517 1512 1509 1507 1507 1509 1516 1524 1529 1524 1512 1514 1516 1519 1523 1527 1530 1533 1536 1538 1541 1543 1546 1548 1551 1552 1554 1554 1555 1556 1556 1557 1557 1557 1557 1557 1557 1557 1556 1556
1503 1503 1507 1511 1506 1503 1509 1510 1509 1510 1519 1521 1520 1515 1510 1512 1515 1519 1523 1526 1529 1532 1535 1537 1540 1542 1544 1546 1548 1550 1552 1553 1554 1555 1556 1556 1557 1557 1557 1557 1556 1556 1556 1555
1502 1503 1502 1497 1495 1497 1502 1505 1508 1510 1508 1513 1511 1511 1509 1510 1514 1519 1522 1525 1528 1531 1533 1536 1538 1540 1542 1545 1546 1549 1550 1552 1553 1554 1555 1555 1556 1556 1556 1556 1556 1555 1555 1555
1502 1502 1502 1504 1500 1500 1503 1503 1505 1507 1506 1506 1507 1508 1506 1512 1515 1518 1521 1524 1526 1529 1531 1534 1536 1538 1540 1542 1544 1547 1548 1550 1551 1552 1553 1554 1554 1555 1555 1555 1555 1554 1555 1555
1499 1503 1506 1505 1501 1504 1510 1502 1503 1504 1503 1504 1507 1506 1508 1511 1515 1517 1520 1522 1524 1527 1529 1532 1534 1536 1538 1541 1543 1545 1547 1548 1549 1551 1552 1552 1553 1554 1554 1555 1555 1555 1555 1555
1499 1502 1501 1502 1508 1520 1502 1495 1497 1500 1501 1502 1503 1505 1508 1511 1515 1517 1519 1521 1523 1525 1527 1530 1532 1534 1537 1539 1541 1543 1545 1546 1548 1549 1551 1551 1552 1552 1553 1554 1555 1555 1555 1555
1498 1501 1500 1501 1507 1506 1501 1498 1498 1501 1503 1503 1504 1507 1509 1512 1513 1516 1518 1519 1521 1523 1525 1527 1530 1532 1535 1537 1539 1541 1543 1545 1546 1548 1549 1550 1551 1551 1552 1553 1554 1554 1555 1555
1500 1499 1498 1500 1506 1509 1497 1495 1499 1502 1506 1503 1505 1507 1509 1510 1507 1512 1517 1518 1520 1522 1524 1526 1529 1531 1533 1535 1538 1540 1542 1544 1545 1547 1548 1549 1550 1551 1551 1552 1553 1553 1554 1554
1498 1500 1498 1498 1501 1494 1493 1497 1501 1508 1505 1504 1505 1507 1509 1510 1510 1514 1516 1517 1519 1520 1522 1525 1527 1529 1531 1534 1536 1538 1540 1542 1544 1545 1547 1548 1549 1550 1551 1551 1552 1553 1553 1554
1491 1493 1497 1495 1500 1500 1497 1498 1499 1502 1504 1505 1506 1508 1510 1512 1513 1514 1516 1517 1518 1519 1521 1524 1526 1528 1530 1533 1535 1537 1539 1541 1542 1544 1546 1547 1548 1549 1550 1551 1551 1552 1553 1553
1490 1491 1488 1492 1496 1499 1500 1501 1503 1505 1505 1506 1507 1509 1511 1512 1513 1515 1516 1517 1518 1519 1521 1523 1525 1527 1530 1532 1534 1536 1537 1539 1541 1543 1544 1545 1547 1548 1549 1550 1551 1551 1552 1553
1494 1497 1495 1496 1497 1500 1502 1503 1504 1506 1507 1508 1509 1509 1511 1512 1514 1515 1516 1517 1518 1520 1521 1523 1525 1527 1529 1531 1532 1534 1535 1537 1539 1541 1543 1544 1545 1547 1548 1549 1550 1551 1552 1552
1493 1495 1494 1497 1499 1501 1503 1504 1505 1506 1507 1508 1509 1510 1511 1512 1514 1515 1516 1517 1518 1520 1521 1523 1525 1526 1528 1530 1531 1533 1534 1536 1538 1539 1541 1543 1544 1545 1546 1547 1548 1549 1550 1551
1495 1495 1494 1494 1500 1500 1503 1505 1505 1506 1507 1508 1509 1511 1512 1513 1514 1516 1516 1518 1519 1520 1521 1523 1525 1526 1527 1529 1530 1531 1532 1534 1536 1537 1539 1541 1542 1543 1545 1546 1547 1547 1548 1549